Hourly Data Report for July 05, 2021

CAMPBELL RIVER A
BRITISH COLUMBIA
Current Station Operator: NAVCAN

49°57'07.000" N
125°16'23.000" W
108.80 m
1021270
YBL

Download Data

Hourly Data (July 2021)
Hourly Data Report for July 5, 2021
TIME
LST
Temp Definition
°C
Dew Point Definition
°C
Rel Hum Definition
%
Precip. Amount Definition
mm

Wind Dir Definition
10's deg

Wind Spd Definition
km/h
Visibility Definition
km
Stn Press Definition
kPa
Hmdx Definition


Wind Chill Definition


Weather Definition


00:00 15.7 11.7 77 LegendMM 32 11 LegendMM 100.23     LegendNANA
01:00 15.2 12.1 81 LegendMM 28 9 LegendMM 100.24     LegendNANA
02:00 15.6 11.6 77 LegendMM 30 10 LegendMM 100.26     LegendNANA
03:00 14.8 11.2 78 LegendMM 30 11 LegendMM 100.27     LegendNANA
04:00 13.9 11.0 83 LegendMM 29 11 LegendMM 100.32     LegendNANA
05:00 13.5 10.6 83 LegendMM 31 14 LegendMM 100.38     LegendNANA
06:00 14.7 10.9 78 LegendMM 31 12 LegendMM 100.41     LegendNANA
07:00 16.9 11.7 71 LegendMM 32 18 LegendMM 100.45     LegendNANA
08:00 18.0 11.8 67 LegendMM 29 11 LegendMM 100.45     LegendNANA
09:00 20.5 12.6 60 LegendMM 27 4 LegendMM 100.42     LegendNANA
10:00 22.2 13.1 56 LegendMM 13 9 LegendMM 100.42 25   LegendNANA
11:00 23.0 13.0 53 LegendMM 11 13 LegendMM 100.41 26   LegendNANA
12:00 24.2 13.2 50 LegendMM 7 14 LegendMM 100.41 27   LegendNANA
13:00 25.3 13.4 47 LegendMM 10 5 LegendMM 100.39 28   LegendNANA
14:00 25.6 13.9 48 LegendMM 8 8 LegendMM 100.39 29   LegendNANA
15:00 26.2 12.7 43 LegendMM 7 11 LegendMM 100.37 29   LegendNANA
16:00 26.2 12.4 42 LegendMM 12 9 LegendMM 100.36 29   LegendNANA
17:00 26.4 13.3 44 LegendMM 12 9 LegendMM 100.34 29   LegendNANA
18:00 24.7 14.4 52 LegendMM 5 8 LegendMM 100.35 28   LegendNANA
19:00 24.1 14.4 54 LegendMM 4 3 LegendMM 100.37 28   LegendNANA
20:00 20.7 14.9 69 LegendMM 32 6 LegendMM 100.40 25   LegendNANA
21:00 17.7 14.0 79 LegendMM 34 5 LegendMM 100.43     LegendNANA
22:00 16.1 14.1 88 LegendMM 26 6 LegendMM 100.44     LegendNANA
23:00 15.5 13.3 86 LegendMM 36 3 LegendMM 100.47     LegendNANA

Notes on Data Quality.

Legend

  • E = Estimated
  • M = Missing
  • NA = Not Available*
  • [empty] = Indicates an unobserved value
Date modified: